TimeCEST,TemperatureF,Dew PointF,Humidity,Sea Level PressureIn,VisibilityMPH,Wind Direction,Wind SpeedMPH,Gust SpeedMPH,PrecipitationIn,Events,Conditions,WindDirDegrees,DateUTC
12:00 AM,59.0,46.4,63,30.06,-9999.0,North,4.6,-,N/A,,Clear,350,2012-10-04 22:00:00
12:30 AM,59.0,46.4,63,30.06,-9999.0,NNW,5.8,-,N/A,,Clear,340,2012-10-04 22:30:00
1:00 AM,59.0,46.4,63,30.06,-9999.0,NNW,9.2,-,N/A,,Clear,330,2012-10-04 23:00:00
1:30 AM,59.0,46.4,63,30.06,-9999.0,NNW,8.1,-,N/A,,Clear,340,2012-10-04 23:30:00
2:00 AM,55,45,59,30.06,19,North,3.5,,,,,350,2012-10-05 00:00:00
2:00 AM,57.2,46.4,67,30.06,-9999.0,North,3.5,-,N/A,,Clear,360,2012-10-05 00:00:00
2:30 AM,55.4,46.4,72,30.06,-9999.0,NNW,3.5,-,N/A,,Clear,340,2012-10-05 00:30:00
3:00 AM,53.6,46.4,77,30.06,-9999.0,Calm,Calm,-,N/A,,Clear,0,2012-10-05 01:00:00
3:30 AM,53.6,46.4,77,30.06,-9999.0,Calm,Calm,-,N/A,,Clear,0,2012-10-05 01:30:00
4:00 AM,53.6,46.4,77,30.06,-9999.0,North,4.6,-,N/A,,Clear,350,2012-10-05 02:00:00
4:30 AM,53.6,46.4,77,30.06,-9999.0,North,4.6,-,N/A,,Clear,350,2012-10-05 02:30:00
5:00 AM,53.6,46.4,77,30.06,-9999.0,NNW,3.5,-,N/A,,Clear,340,2012-10-05 03:00:00
5:30 AM,53.6,46.4,77,30.06,-9999.0,North,4.6,-,N/A,,Clear,360,2012-10-05 03:30:00
6:00 AM,51.8,44.6,76,30.06,-9999.0,North,2.3,-,N/A,,Clear,360,2012-10-05 04:00:00
6:30 AM,51.8,44.6,76,30.06,-9999.0,NNW,2.3,-,N/A,,Clear,340,2012-10-05 04:30:00
7:00 AM,51.8,44.6,76,30.09,-9999.0,NNW,3.5,-,N/A,,Clear,330,2012-10-05 05:00:00
7:30 AM,51.8,44.6,76,30.09,-9999.0,Variable,2.3,-,N/A,,Clear,0,2012-10-05 05:30:00
8:00 AM,49,43,73,30.11,19,NNW,4.6,,,,Clear,340,2012-10-05 06:00:00
8:00 AM,50.0,44.6,82,30.09,-9999.0,North,3.5,-,N/A,,Clear,350,2012-10-05 06:00:00
8:30 AM,50.0,44.6,82,30.09,-9999.0,North,4.6,-,N/A,,Clear,350,2012-10-05 06:30:00
9:00 AM,51.8,44.6,76,30.09,-9999.0,North,3.5,-,N/A,,Clear,360,2012-10-05 07:00:00
9:30 AM,53.6,44.6,72,30.12,-9999.0,North,4.6,-,N/A,,Clear,360,2012-10-05 07:30:00
10:00 AM,55.4,46.4,72,30.12,-9999.0,Variable,2.3,-,N/A,,Clear,0,2012-10-05 08:00:00
10:30 AM,57.2,46.4,67,30.12,-9999.0,Variable,2.3,-,N/A,,Clear,0,2012-10-05 08:30:00
11:00 AM,60.8,46.4,59,30.12,-9999.0,NNW,3.5,-,N/A,,Clear,340,2012-10-05 09:00:00
11:30 AM,64.4,48.2,56,30.15,-9999.0,North,1.2,-,N/A,,Clear,360,2012-10-05 09:30:00
12:00 PM,66.2,48.2,52,30.15,-9999.0,West,1.2,-,N/A,,Clear,280,2012-10-05 10:00:00
12:30 PM,69.8,50.0,49,30.15,-9999.0,SW,1.2,-,N/A,,Clear,220,2012-10-05 10:30:00
1:00 PM,71.6,50.0,46,30.12,-9999.0,West,1.2,-,N/A,,Clear,280,2012-10-05 11:00:00
1:30 PM,73.4,50.0,44,30.12,-9999.0,Calm,Calm,-,N/A,,Clear,0,2012-10-05 11:30:00
2:00 PM,73,48,29,30.04,19,SW,3.5,,,,Scattered Clouds,220,2012-10-05 12:00:00
2:00 PM,75.2,50.0,41,30.12,-9999.0,SW,2.3,-,N/A,,Clear,230,2012-10-05 12:00:00
2:30 PM,75.2,50.0,41,30.12,-9999.0,West,2.3,-,N/A,,Clear,270,2012-10-05 12:30:00
3:00 PM,77.0,46.4,34,30.09,-9999.0,NW,3.5,-,N/A,,Clear,310,2012-10-05 13:00:00
3:30 PM,78.8,42.8,28,30.09,-9999.0,WSW,2.3,-,N/A,,Clear,250,2012-10-05 13:30:00
4:00 PM,78.8,42.8,28,30.09,-9999.0,WSW,4.6,19.6,N/A,,Clear,250,2012-10-05 14:00:00
4:30 PM,78.8,42.8,28,30.06,-9999.0,SE,2.3,-,N/A,,Clear,140,2012-10-05 14:30:00
5:00 PM,80.6,39.2,23,30.06,-9999.0,South,4.6,-,N/A,,Clear,190,2012-10-05 15:00:00
5:30 PM,80.6,41.0,24,30.06,-9999.0,SSW,4.6,-,N/A,,Clear,210,2012-10-05 15:30:00
6:00 PM,80.6,39.2,23,30.06,-9999.0,West,3.5,-,N/A,,Clear,270,2012-10-05 16:00:00
6:30 PM,80.6,39.2,23,30.06,-9999.0,SSW,4.6,-,N/A,,Clear,200,2012-10-05 16:30:00
7:00 PM,78.8,41.0,26,30.06,-9999.0,SSE,4.6,-,N/A,,Clear,160,2012-10-05 17:00:00
7:30 PM,77.0,39.2,26,30.06,-9999.0,SSE,5.8,-,N/A,,Clear,160,2012-10-05 17:30:00
8:00 PM,72,39,19,30.01,19,South,4.6,,,,,180,2012-10-05 18:00:00
8:00 PM,77.0,39.2,26,30.06,-9999.0,South,4.6,-,N/A,,Clear,180,2012-10-05 18:00:00
8:30 PM,75.2,41.0,29,30.09,-9999.0,SSW,4.6,-,N/A,,Clear,210,2012-10-05 18:30:00
9:00 PM,73.4,41.0,31,30.09,-9999.0,SSW,3.5,-,N/A,,Clear,210,2012-10-05 19:00:00
9:30 PM,73.4,41.0,31,30.09,-9999.0,SSW,3.5,17.3,N/A,,Clear,210,2012-10-05 19:30:00
10:00 PM,69.8,42.8,38,30.12,-9999.0,South,1.2,-,N/A,,Clear,170,2012-10-05 20:00:00
10:30 PM,64.4,44.6,49,30.12,-9999.0,Variable,2.3,-,N/A,,Clear,0,2012-10-05 20:30:00
11:00 PM,62.6,48.2,59,30.12,-9999.0,NNW,4.6,-,N/A,,Clear,340,2012-10-05 21:00:00
11:30 PM,62.6,48.2,59,30.12,-9999.0,NNW,4.6,-,N/A,,Clear,340,2012-10-05 21:30:00